Theta_e
307 307 307 307 307 306 306 306 307 308 309 310 311 310 310 309 309 309 309 310 311 312 314 314 315 315 315 315 314 315 315 316 320 320 320 320 317 316 314 314 316 314 313 313 315 315 314 316 315 316 317 318 319 321 321 321 320 320 321 316 313 314 314 314 316 316 316 318 317 316 316 316 316 316 315 314 314 315 316 316 316 315 314 314 314 313 313 313
306 306 307 308 307 307 307 307 307 308 309 310 311 312 312 311 310 309 310 311 312 314 314 315 315 315 315 314 315 315 314 317 320 319 317 316 316 315 315 315 315 313 313 315 315 315 314 315 315 315 316 317 319 321 321 321 321 320 319 316 314 316 315 314 315 315 316 317 317 316 316 315 315 316 315 315 316 316 316 316 317 314 314 315 314 313 313 313
305 305 307 308 308 308 307 307 307 307 308 309 310 312 312 312 311 310 311 312 313 314 315 315 315 315 315 314 315 314 316 321 320 317 316 315 315 315 315 314 313 312 313 315 314 314 315 315 315 315 315 316 318 318 319 320 321 319 318 318 317 316 315 314 315 315 315 316 316 316 316 315 315 315 315 315 316 316 316 316 316 315 314 314 314 313 314 313
305 305 306 307 308 308 308 308 308 307 307 308 309 310 311 312 311 311 312 313 314 314 315 315 315 315 315 315 316 315 320 326 319 315 315 315 315 314 314 314 313 313 314 313 314 314 315 315 315 315 316 316 316 316 318 319 319 319 318 318 316 315 315 315 315 315 315 316 315 316 315 315 316 315 314 315 316 317 317 315 314 314 314 313 313 313 314 313
305 306 306 306 307 307 308 308 308 308 307 308 309 310 311 311 311 312 313 314 314 315 315 315 315 315 315 316 316 316 322 323 316 315 315 314 315 313 314 314 314 314 314 314 314 315 315 316 316 315 316 317 316 316 317 317 317 318 317 317 316 315 316 316 315 315 315 315 315 315 315 315 315 314 314 315 315 317 316 313 312 312 312 312 311 312 313 313
305 305 306 306 306 307 307 308 308 308 308 308 309 310 311 311 312 313 313 314 315 315 315 315 316 316 316 317 316 318 322 319 315 316 314 314 314 313 314 314 315 315 314 315 315 316 316 315 316 317 317 316 317 316 316 316 316 317 317 316 316 316 316 316 316 315 315 315 315 315 315 315 314 315 315 314 315 316 312 311 311 311 311 311 311 312 312 312
304 304 305 306 306 306 307 308 308 308 309 309 310 311 312 312 313 314 314 315 316 316 316 316 316 317 317 317 318 321 323 319 317 316 314 314 313 313 314 314 315 315 314 316 316 316 316 315 316 316 317 317 316 315 315 316 316 316 317 317 317 316 316 316 316 315 314 314 315 315 314 314 314 315 314 314 315 313 311 311 311 311 311 311 311 311 311 311
307 306 305 306 306 307 307 308 309 310 311 310 310 312 313 313 314 315 315 316 316 316 317 317 317 318 317 319 323 322 321 321 318 317 317 316 314 313 313 314 314 315 316 317 317 317 315 315 316 315 317 317 315 315 315 315 316 317 317 317 316 316 315 316 315 314 314 314 315 314 313 314 315 315 313 314 314 311 310 311 311 311 311 310 310 309 310 311
310 310 308 308 307 307 307 308 309 311 313 312 312 313 314 314 314 315 316 316 316 317 317 317 317 318 316 320 323 320 320 320 318 319 319 317 315 313 314 315 315 315 317 316 316 316 316 316 316 315 316 316 314 315 314 314 317 316 316 316 315 315 315 315 314 314 315 314 314 313 314 316 315 313 313 314 312 310 310 310 310 310 310 310 309 309 310 310
312 311 311 311 309 309 308 309 310 312 315 315 313 314 315 315 316 316 316 317 317 317 317 318 317 317 319 322 321 319 320 318 318 319 318 317 317 314 315 317 316 316 317 317 316 316 316 316 316 315 316 316 315 315 314 314 315 314 315 315 315 315 315 315 315 315 315 314 314 313 315 316 313 312 315 313 311 310 310 310 310 310 310 309 309 309 310 310
314 313 313 312 311 311 310 310 312 313 315 315 315 314 315 316 316 317 317 318 318 317 318 318 317 317 321 321 318 320 320 319 319 319 318 318 317 316 316 316 316 317 318 317 317 316 316 316 316 315 316 315 314 314 314 313 314 313 314 314 315 316 315 315 316 316 315 314 314 313 314 314 312 313 314 312 310 311 311 311 310 310 310 309 308 308 309 309
313 313 314 314 312 313 312 312 313 313 314 315 316 315 314 316 317 318 318 318 319 318 318 318 317 317 320 319 319 321 319 320 320 318 318 317 317 317 316 316 316 316 317 317 317 316 315 315 315 314 315 315 316 316 314 313 313 314 314 315 317 317 318 318 316 315 314 314 312 312 315 315 313 313 312 310 310 311 311 311 311 310 310 309 309 308 308 308
314 314 315 314 313 313 312 312 312 313 314 315 316 316 315 317 318 318 319 319 320 319 317 317 317 317 320 319 319 318 317 319 320 319 318 317 317 317 316 316 315 314 315 316 318 315 313 315 315 315 315 316 317 315 313 313 313 314 315 315 318 320 319 317 315 314 314 314 311 313 316 317 315 313 311 310 310 311 312 312 311 311 310 309 309 308 308 307
314 315 315 315 314 313 313 313 313 313 314 315 315 316 317 319 319 319 320 320 320 319 318 317 316 318 319 318 317 316 316 316 318 319 317 317 317 316 315 315 314 314 313 314 315 313 312 314 315 315 314 315 315 313 313 315 314 316 317 317 318 319 318 316 314 315 316 313 311 313 316 318 316 312 311 310 311 312 313 313 312 311 310 309 309 308 307 306
315 316 317 316 315 315 315 314 313 313 314 314 315 317 318 319 320 320 320 319 319 318 317 316 316 319 319 318 317 316 315 316 318 319 317 316 318 317 315 315 314 314 313 313 313 312 313 314 315 316 314 313 314 314 317 318 317 317 318 318 320 319 318 318 315 315 317 314 312 315 317 319 316 313 312 311 311 312 313 313 312 311 310 309 309 308 307 306
316 317 317 317 316 316 315 315 314 313 314 315 316 318 319 320 319 320 320 319 319 317 318 320 318 318 318 318 317 316 316 318 320 319 316 316 319 318 315 315 314 314 314 313 313 313 314 315 315 316 315 314 316 317 319 320 319 319 318 318 320 319 320 320 315 314 316 314 314 315 318 320 317 313 312 311 311 311 312 313 312 311 310 309 309 308 307 307
317 317 317 318 317 316 315 314 314 314 313 314 317 319 320 320 319 319 319 318 319 317 318 321 319 317 318 318 317 317 318 318 319 319 317 316 317 317 315 315 315 315 314 314 314 315 315 315 315 316 316 316 318 319 320 320 319 319 319 319 320 320 320 319 316 314 314 315 317 316 317 319 317 314 312 311 311 311 312 313 312 311 310 309 309 307 307 306
317 316 317 318 317 316 315 314 314 314 314 315 317 319 319 319 318 318 318 318 317 317 318 318 318 319 319 318 317 317 318 317 317 318 317 316 315 316 316 316 316 315 315 315 315 315 316 316 316 318 319 318 318 319 320 320 319 319 320 320 320 320 319 318 318 316 315 316 317 318 318 318 318 316 313 312 312 311 312 313 311 310 310 309 308 307 306 306
317 317 316 316 316 316 316 315 315 314 315 316 318 318 317 317 317 318 319 319 318 319 320 319 318 318 319 319 318 317 316 316 317 318 317 315 314 315 316 316 316 316 317 317 317 316 317 318 317 319 321 320 319 319 320 322 321 320 321 320 320 320 319 320 320 316 315 316 317 318 319 319 319 318 315 312 311 311 312 312 311 310 309 308 308 307 306 305
316 317 316 316 318 317 317 315 314 315 316 318 319 318 319 319 320 321 320 319 318 318 320 320 319 318 319 319 317 315 315 315 316 318 317 314 315 315 316 316 317 317 318 320 319 316 316 320 320 321 322 322 321 320 320 321 320 320 321 320 320 320 319 321 321 315 314 317 318 319 319 319 318 319 317 312 311 312 312 311 311 310 309 308 307 307 306 304
317 318 318 317 318 317 316 315 314 315 316 318 319 320 320 320 321 321 320 320 320 319 319 319 319 320 319 318 316 315 316 316 316 317 316 315 315 317 316 316 318 319 319 320 319 315 316 320 322 322 322 322 321 320 320 320 319 319 320 319 320 320 319 321 321 316 313 316 319 319 319 318 318 318 317 313 312 313 312 312 311 310 309 308 307 306 305 304
317 318 318 317 316 316 316 315 314 315 317 318 318 321 320 319 318 317 318 320 321 321 320 320 320 319 318 317 315 315 318 318 317 317 316 314 316 317 317 317 318 321 319 318 319 318 319 321 322 322 321 319 318 318 319 319 319 319 319 319 320 320 321 322 320 316 314 315 318 319 318 319 318 319 318 313 313 313 311 311 311 310 309 307 307 306 305 304
317 318 317 317 318 317 317 315 314 316 317 318 319 321 320 318 316 316 318 320 321 322 322 321 320 319 319 318 315 315 318 320 320 318 315 314 316 316 317 317 319 321 319 318 320 322 322 321 321 321 319 318 318 317 317 318 318 319 319 319 320 321 322 322 319 315 314 315 317 318 318 319 319 319 316 312 312 311 309 309 309 308 308 307 306 305 304 304
317 317 317 318 319 319 317 315 313 316 317 318 319 320 319 317 316 317 319 321 322 322 322 321 321 320 320 319 317 317 318 320 321 319 315 315 316 315 317 318 320 321 319 318 320 322 323 320 318 319 318 318 319 317 317 318 319 320 320 320 321 322 322 322 320 317 316 317 316 317 319 319 320 320 316 311 310 309 307 307 307 306 306 306 305 304 304 303
318 318 317 318 319 319 317 315 315 316 317 318 318 319 317 317 316 317 319 322 324 323 321 320 320 321 320 318 317 318 318 319 320 318 315 315 316 316 316 317 319 321 320 319 319 321 322 318 316 318 317 318 319 319 319 319 320 321 321 321 321 321 321 321 321 319 321 322 317 317 321 321 319 320 318 313 309 309 307 307 307 306 305 304 304 303 302 302
319 319 318 318 318 318 315 315 316 317 317 318 318 318 317 317 316 316 319 324 326 324 321 320 322 321 319 319 317 318 321 320 317 316 315 315 315 316 317 317 318 320 320 320 320 321 320 316 316 319 319 319 320 320 320 320 321 323 322 320 320 320 321 321 321 320 322 324 318 316 322 323 319 319 319 315 312 311 308 308 307 306 305 304 304 303 302 302
318 319 319 318 318 317 315 316 317 317 317 319 318 317 318 317 315 316 321 326 327 325 322 319 319 319 318 318 318 320 324 320 314 314 314 313 314 315 317 318 317 318 318 319 322 321 318 316 317 320 320 320 320 321 321 320 322 324 320 319 320 320 320 321 321 321 322 322 319 316 320 323 321 321 320 316 315 313 309 309 308 306 305 305 304 303 302 302
318 318 318 319 318 316 316 317 318 317 318 319 318 317 318 317 315 318 324 328 328 324 322 317 314 314 314 315 317 319 318 316 317 315 311 311 313 314 317 319 319 318 316 319 323 321 318 318 319 319 320 321 321 321 321 320 322 321 317 317 319 318 320 320 320 321 320 320 321 320 320 322 322 320 318 316 316 316 313 310 308 307 306 305 304 303 302 301
319 318 318 318 318 316 316 317 318 318 319 318 318 318 318 315 316 321 325 327 327 321 319 316 313 313 314 315 316 315 312 313 316 314 310 311 313 313 316 318 318 319 316 318 323 321 316 315 317 318 320 321 319 317 318 320 320 318 316 317 317 317 318 319 319 320 319 320 322 322 321 322 322 319 318 317 317 318 317 313 310 308 306 305 304 303 302 301
320 319 318 318 318 316 315 316 317 318 318 317 319 318 316 316 319 325 327 328 327 321 316 315 315 316 316 317 317 315 313 313 313 312 312 313 313 312 314 314 316 318 317 317 320 318 313 310 312 317 318 317 315 312 313 316 317 316 316 318 318 318 317 317 318 318 320 322 322 321 321 322 322 319 318 319 317 316 316 313 310 308 307 305 304 303 301 300
321 320 319 317 318 317 315 316 317 318 317 318 318 315 316 322 324 329 329 325 322 320 316 315 317 317 317 320 320 316 314 314 313 313 314 313 314 314 314 316 317 319 319 319 319 317 314 313 314 315 314 314 314 312 311 312 314 316 318 318 319 319 317 317 318 317 322 324 319 316 319 322 322 319 316 316 315 313 314 313 310 308 307 305 304 302 301 300
322 321 319 318 317 317 316 317 316 317 317 316 316 317 321 327 328 330 328 322 321 322 319 318 317 317 319 320 321 317 315 315 314 315 316 315 316 316 317 319 319 321 323 321 321 319 318 317 316 314 312 313 316 316 313 312 313 316 318 318 321 322 320 321 321 320 323 322 315 313 317 320 320 318 316 315 314 313 313 312 311 309 307 305 303 302 301 300
322 321 319 318 317 317 316 316 316 317 316 314 317 321 324 328 330 329 327 324 323 320 318 318 317 318 320 321 321 317 316 317 315 316 317 317 318 317 318 319 319 322 324 323 322 321 320 319 317 316 313 313 316 318 316 315 314 316 318 319 322 324 324 326 324 322 322 318 312 312 315 317 318 317 316 314 312 311 310 310 310 309 307 305 303 301 300 300
322 321 319 318 317 317 316 316 316 316 315 315 320 322 323 326 328 327 328 327 321 316 316 317 317 318 320 321 320 316 317 318 315 316 317 318 319 319 319 319 319 320 321 322 324 323 324 323 319 318 316 314 316 318 319 318 315 316 318 319 321 323 324 326 324 322 322 317 312 311 314 317 317 315 312 309 307 307 307 307 308 308 307 305 303 301 300 299
322 320 320 318 317 317 316 315 316 316 316 318 322 322 322 325 324 324 328 326 319 316 316 316 317 319 320 320 318 316 318 319 316 316 318 319 319 320 321 319 319 319 320 323 324 322 325 325 319 316 315 315 316 318 318 318 318 317 317 319 320 321 321 321 319 318 318 317 315 313 314 316 316 313 308 306 306 305 305 306 306 307 307 305 303 302 301 300
322 319 319 318 317 317 316 316 316 316 317 320 323 322 322 324 324 324 326 325 321 317 316 317 318 319 321 320 317 316 317 317 317 318 318 319 319 320 321 320 319 318 320 322 322 322 323 322 316 313 313 313 313 315 316 317 319 317 317 319 319 318 319 319 318 315 315 319 320 316 316 316 315 314 310 308 308 307 305 306 306 306 307 305 304 302 301 301
320 318 318 318 317 317 316 316 316 316 317 322 324 322 322 323 324 324 324 322 319 316 317 320 321 320 321 321 318 317 316 316 317 318 319 319 320 319 320 320 319 318 318 320 321 320 321 320 315 314 315 311 309 312 314 314 316 317 317 319 317 316 317 318 319 319 319 321 322 319 318 318 318 317 313 310 311 310 307 307 306 306 306 306 305 303 302 301
318 318 318 318 317 317 316 315 316 316 319 322 324 323 323 323 323 323 322 319 317 318 320 323 322 320 321 322 320 317 316 317 317 317 319 319 320 319 319 319 319 317 317 318 318 318 319 320 316 313 315 312 308 312 315 312 313 314 315 316 316 318 319 318 319 321 322 323 322 320 319 318 319 318 314 312 313 313 310 308 307 307 307 306 306 304 302 302
318 318 320 319 317 317 316 315 316 317 320 323 324 324 323 322 322 322 320 318 317 319 321 322 323 322 321 321 320 317 316 317 317 316 318 319 319 318 317 318 318 317 316 316 317 317 317 320 318 312 312 313 310 313 316 315 313 312 313 314 315 317 318 318 319 319 321 323 323 322 321 319 319 317 315 314 314 314 313 309 308 308 307 307 307 305 304 302
318 319 320 319 317 317 316 315 316 318 322 322 322 323 323 322 321 320 318 319 320 320 321 323 324 323 322 321 320 318 316 317 316 315 316 318 318 317 315 316 317 316 316 316 317 317 316 318 319 313 311 313 313 315 316 317 315 313 314 315 315 315 315 316 318 318 319 321 322 322 322 320 317 316 315 315 314 314 314 312 310 309 308 307 307 306 305 303
317 320 319 317 317 316 315 316 318 320 322 322 321 322 322 321 321 319 318 320 322 321 321 323 324 324 322 321 320 318 316 316 316 314 316 316 316 318 315 314 316 316 315 315 316 317 316 317 318 314 312 315 316 314 314 315 316 315 315 316 316 316 316 317 319 318 317 319 320 320 321 320 315 314 314 314 314 314 314 313 312 311 309 308 308 307 306 303
318 321 317 315 317 316 315 318 320 320 321 321 322 322 321 320 320 319 317 318 321 320 319 321 323 325 324 322 322 321 318 318 317 315 317 316 316 318 315 313 315 314 314 315 316 316 316 316 317 316 315 315 314 312 309 310 313 315 315 316 316 316 316 319 321 319 316 317 318 317 318 319 313 311 311 310 310 311 311 312 313 311 310 309 308 307 306 304
319 318 313 313 316 315 317 320 320 320 321 321 321 320 320 320 319 319 318 317 319 320 319 320 321 323 324 323 323 322 320 320 319 317 318 319 319 316 312 312 315 314 314 316 316 315 316 316 317 318 316 313 312 311 309 309 311 314 315 314 316 317 317 317 317 316 316 317 317 316 318 318 311 307 307 307 306 306 306 308 310 310 308 307 306 306 305 304
317 315 312 312 314 315 319 321 320 320 321 321 320 319 318 319 319 319 318 318 319 319 319 320 320 320 322 322 322 321 319 320 320 318 318 322 320 312 309 312 314 315 317 317 317 315 315 316 318 319 319 317 315 314 313 312 312 313 314 314 315 316 317 316 314 314 315 317 317 317 318 318 312 306 307 307 306 307 306 306 307 308 308 307 305 305 305 304
315 315 313 311 310 313 318 320 319 320 320 320 319 318 319 319 318 318 319 318 319 319 320 321 320 320 321 320 320 321 319 320 322 319 318 321 318 310 309 311 312 315 316 316 319 318 315 317 318 318 321 322 321 319 317 315 313 313 315 315 315 315 316 316 314 315 316 317 317 317 317 317 312 307 308 309 308 308 308 307 306 306 307 306 305 305 304 303
318 318 315 312 311 311 314 315 317 320 320 320 320 319 319 319 317 317 318 319 319 318 320 321 321 320 320 319 320 320 319 319 320 319 318 319 317 311 308 308 310 313 314 314 319 318 316 319 319 319 322 321 320 320 319 317 315 314 315 315 314 315 316 315 315 316 317 317 317 317 316 317 314 310 310 310 309 309 309 308 306 306 306 306 305 305 304 303
317 319 316 314 314 313 313 314 316 318 319 320 320 319 318 319 318 316 317 319 319 318 318 319 319 320 319 319 320 320 320 319 318 318 318 317 315 309 306 307 309 311 312 313 317 317 316 318 319 319 321 319 317 317 316 316 317 316 316 315 315 315 316 317 317 316 316 317 317 317 316 317 316 312 312 311 310 310 310 309 307 306 305 305 305 305 304 303
313 316 314 313 316 316 315 315 315 317 319 319 320 320 319 319 319 318 317 317 318 318 318 318 318 318 319 319 320 321 321 319 317 317 318 316 314 311 309 309 309 309 311 313 315 316 316 316 318 319 319 318 317 315 314 315 316 315 316 316 315 315 316 316 316 315 316 316 317 316 316 316 315 312 312 312 310 310 310 309 308 306 306 305 305 304 303 302
308 310 308 308 312 314 314 315 315 316 318 319 319 319 319 319 318 319 317 316 317 317 318 319 318 318 319 320 321 320 319 319 318 316 316 315 314 312 312 313 310 309 311 313 314 315 316 316 318 318 318 318 318 317 315 314 315 315 315 315 315 315 315 315 315 314 315 316 315 315 315 315 313 312 312 311 310 310 309 309 308 307 307 306 305 304 303 302
307 309 308 308 309 308 311 314 314 315 316 317 318 318 318 319 319 318 316 316 317 317 317 318 318 318 319 319 320 319 318 318 319 316 313 314 313 312 313 314 312 309 310 312 313 313 315 316 316 316 317 317 317 317 315 313 314 314 314 314 314 315 315 314 314 314 314 315 314 314 314 313 312 311 311 310 310 309 309 308 308 307 307 306 305 304 304 303
301 302 304 309 309 307 309 312 313 315 315 314 316 318 317 318 319 318 316 315 316 317 316 318 318 317 317 316 317 318 316 316 317 315 312 313 313 313 313 313 312 310 310 311 311 311 313 313 312 313 317 316 315 315 313 312 312 312 313 314 313 313 314 313 313 313 313 313 313 313 313 313 311 310 310 310 310 309 308 308 308 307 307 305 305 304 304 304
299 299 302 307 309 307 307 308 310 314 315 314 314 315 315 316 317 318 316 313 313 314 315 316 317 316 315 315 315 316 315 314 315 314 312 313 313 313 314 314 313 312 310 309 310 310 311 312 312 314 316 315 313 312 311 311 312 313 313 312 312 312 312 312 312 312 312 312 312 313 313 312 310 310 310 309 309 308 308 308 308 307 306 305 305 305 304 304
Wind_Speed
6 7 7 7 7 7 7 7 6 5 5 5 4 4 4 3 3 3 2 1 0 1 2 3 4 5 6 7 8 9 10 6 2 3 2 2 1 5 4 3 3 2 3 2 1 3 2 2 1 1 3 1 1 1 1 2 2 3 2 2 1 1 2 2 1 2 2 4 6 4 2 4 2 1 1 2 6 7 5 6 4 5 7 7 7 6 7 8
5 6 6 6 7 7 7 7 7 6 5 5 4 4 4 4 3 3 2 1 0 1 2 3 4 6 6 7 8 9 10 4 1 4 6 4 4 6 6 5 4 3 4 2 2 3 3 0 1 3 3 1 0 0 1 1 2 2 2 3 1 3 3 3 3 3 2 2 3 3 2 3 3 3 3 5 5 5 8 6 5 6 7 7 7 8 8 9
5 5 5 6 7 7 7 7 7 6 5 5 4 4 4 4 3 2 1 0 1 2 3 4 5 6 6 7 7 9 10 4 3 4 5 4 7 7 7 6 5 5 4 2 2 3 3 1 1 3 3 1 1 0 1 1 2 1 2 3 3 5 3 3 2 2 2 3 0 0 2 3 3 1 2 4 7 8 7 1 2 2 4 5 7 8 8 9
6 6 6 6 6 7 7 7 6 6 6 5 5 5 4 3 2 2 1 0 1 2 3 4 5 5 6 6 6 9 9 5 3 4 2 4 6 7 7 7 5 5 4 2 1 1 1 0 1 3 3 1 2 1 1 2 2 1 2 2 6 3 1 4 2 2 2 1 3 2 1 5 2 1 4 4 7 8 1 6 5 4 4 5 6 8 8 8
6 6 6 7 7 7 7 7 7 7 6 6 5 4 4 3 2 2 1 1 2 3 3 4 5 5 5 5 6 8 7 4 3 4 2 3 5 6 7 6 5 5 4 0 1 0 2 2 1 2 3 1 1 2 1 4 2 2 1 3 4 1 1 4 3 2 2 1 3 3 3 2 0 3 6 7 8 3 4 6 5 4 5 5 5 5 6 7
6 7 7 7 8 8 7 7 7 7 7 6 5 4 4 3 2 2 2 1 2 3 3 4 4 4 4 4 6 6 6 2 4 5 4 4 3 5 6 5 4 5 3 1 0 2 2 2 3 2 2 2 1 1 2 3 1 3 2 3 2 0 1 2 3 3 3 3 4 4 2 2 5 8 5 7 6 3 5 4 5 5 4 3 4 4 6 7
7 8 8 8 8 8 7 7 7 6 6 6 5 4 4 4 3 2 2 1 2 2 3 3 3 4 4 4 5 4 5 1 4 6 5 4 3 4 4 4 3 3 1 3 2 3 2 3 3 1 3 3 1 1 2 1 2 4 2 3 2 0 3 1 2 4 4 5 5 3 2 5 10 6 3 5 1 6 5 5 5 4 4 3 4 5 6 6
6 6 7 8 8 8 7 7 6 5 5 5 5 5 4 4 4 3 2 2 2 2 2 2 2 3 3 3 4 4 5 1 4 6 5 4 3 4 4 3 2 2 2 4 2 3 2 4 2 1 4 1 1 0 1 2 5 6 3 2 2 2 4 3 3 4 5 6 5 4 6 10 9 3 3 4 5 6 4 4 4 4 4 4 4 5 5 5
4 5 5 7 7 7 7 6 6 5 4 5 5 5 4 5 4 3 3 2 2 2 2 2 2 3 3 3 4 5 2 4 5 4 5 4 4 5 4 2 2 1 3 2 2 4 2 2 1 1 4 2 1 1 1 4 3 1 3 1 2 4 5 5 6 7 7 5 4 6 10 11 4 0 4 3 7 6 5 4 4 4 4 4 4 5 4 5
6 6 5 5 6 6 7 6 6 5 4 5 5 5 5 5 4 3 3 2 2 2 2 2 2 2 3 2 5 4 1 6 5 3 4 4 4 4 3 2 2 3 3 1 2 3 2 2 2 1 4 1 2 1 1 3 2 2 4 4 7 8 7 6 7 7 5 5 6 7 11 6 3 2 4 5 7 6 6 4 3 3 3 4 4 4 5 5
8 6 4 5 6 6 6 6 6 5 5 4 5 6 5 5 4 3 3 2 2 2 1 2 1 1 3 4 6 4 3 6 5 5 5 6 5 3 2 2 2 3 4 2 3 2 2 2 1 1 1 1 2 2 2 1 3 3 4 7 9 9 8 9 10 7 4 3 5 6 9 5 4 4 2 7 7 6 5 4 4 2 2 4 4 4 5 6
9 7 6 7 6 6 6 6 6 6 5 5 5 6 5 4 4 3 2 2 2 2 1 1 0 1 3 6 6 2 5 7 6 6 7 6 4 2 2 3 4 3 4 4 3 1 2 0 3 4 1 1 2 2 1 1 2 3 4 8 8 9 10 10 6 3 4 2 3 4 8 8 8 4 5 8 7 5 5 4 4 3 3 2 3 3 3 5
9 7 7 8 7 6 6 6 6 7 6 5 5 5 5 4 3 3 2 2 2 1 1 1 1 0 3 5 2 3 6 7 7 7 7 5 1 2 3 4 5 5 4 4 1 4 3 1 3 3 1 3 3 2 1 2 2 4 5 5 7 9 6 4 5 5 5 3 4 4 6 4 8 6 6 7 7 7 6 4 4 3 3 2 2 2 3 5
10 9 9 9 9 8 7 7 7 6 6 6 5 5 4 3 3 3 2 2 1 1 0 0 1 2 3 3 2 3 6 8 7 6 5 3 1 1 1 2 3 4 3 2 3 5 4 2 2 1 2 3 1 3 3 4 4 5 5 4 5 7 2 7 8 6 4 2 4 6 5 2 7 8 6 6 7 7 6 5 4 3 3 2 2 2 3 5
11 11 11 11 10 10 10 8 7 6 6 5 5 5 3 2 3 2 2 2 1 1 1 1 2 2 5 4 1 3 6 7 6 6 6 4 4 3 4 5 4 4 3 4 6 6 4 3 3 2 2 1 1 3 5 5 5 5 4 5 5 4 2 7 8 4 3 2 4 6 5 3 6 8 6 6 7 6 5 5 4 3 3 2 2 2 2 4
12 11 13 13 11 12 12 9 8 7 5 4 4 3 2 2 2 1 2 2 2 3 2 1 3 2 6 3 2 2 4 6 7 8 8 7 5 4 7 7 6 5 4 5 6 6 4 3 1 1 1 2 4 5 5 5 5 5 5 6 5 5 4 3 5 3 2 3 5 6 6 6 4 9 7 7 8 7 6 5 5 4 3 2 2 2 2 3
13 13 14 14 11 12 11 8 7 6 4 3 3 3 1 1 1 2 2 3 3 3 2 1 2 3 4 2 2 3 3 5 6 6 8 10 7 6 9 7 6 6 7 7 5 5 4 3 1 1 3 4 5 4 5 5 5 4 5 5 6 7 7 4 2 4 4 3 5 6 7 9 4 8 10 8 9 9 7 6 5 4 3 3 2 2 1 2
14 14 14 13 11 11 10 9 6 5 4 3 2 1 2 2 2 2 2 4 4 3 2 1 3 4 4 4 3 1 5 5 6 6 8 11 8 8 7 5 6 8 8 6 4 5 4 3 3 4 5 5 6 6 6 6 7 6 4 4 6 7 7 7 4 4 5 4 5 7 9 11 10 7 10 10 8 9 7 5 5 4 4 3 2 2 2 2
16 15 13 12 11 10 9 10 5 6 3 1 2 4 4 2 1 3 4 4 4 4 2 4 7 3 0 5 5 5 6 7 7 6 7 9 8 7 5 5 7 8 6 5 5 6 4 3 4 5 6 7 8 9 9 9 9 8 7 6 8 7 7 10 6 4 3 5 7 9 11 11 12 10 8 10 7 7 6 5 5 4 4 4 3 3 2 2
16 15 13 13 13 11 8 9 4 6 3 1 2 3 3 2 3 3 5 6 9 9 4 3 9 5 1 5 7 7 8 7 4 4 7 9 9 8 6 6 6 5 6 5 5 4 3 5 6 7 9 9 10 12 12 10 6 7 8 8 9 10 9 11 7 3 3 4 7 9 11 12 12 12 7 10 8 7 8 7 6 6 5 4 3 3 2 2
16 15 14 14 14 12 10 9 6 7 4 3 4 4 1 2 4 1 2 7 14 14 10 5 5 5 1 5 8 9 5 3 3 5 9 9 9 8 7 7 6 6 7 6 4 3 3 7 9 11 11 8 5 7 10 8 7 8 9 8 9 9 9 11 6 3 3 2 6 8 11 11 11 13 7 10 9 8 9 8 8 7 5 4 4 4 3 3
17 16 15 13 12 12 11 10 8 7 4 4 6 6 3 3 1 3 1 5 10 14 13 8 4 5 3 5 8 8 2 5 5 7 11 10 9 8 7 9 8 7 7 6 4 3 6 9 12 12 7 2 0 2 6 8 9 8 7 7 8 7 8 10 5 3 2 3 5 7 9 10 13 13 6 9 7 5 5 4 4 6 6 5 4 4 3 3
18 18 17 15 13 12 11 10 9 8 5 7 8 7 3 3 3 4 1 6 7 9 11 11 9 10 9 5 8 9 6 9 8 9 14 12 8 6 6 9 10 8 8 9 8 7 7 7 10 10 4 4 5 4 5 7 7 8 7 6 7 7 7 6 2 3 2 5 7 9 9 11 14 11 4 5 3 4 4 3 3 3 4 4 4 3 4 4
19 19 18 16 14 13 11 8 9 9 9 10 11 11 3 1 3 2 2 6 7 6 7 8 8 10 10 5 9 13 9 9 9 8 15 14 8 4 7 10 11 10 8 12 13 12 11 2 1 6 6 7 9 6 7 7 6 8 10 9 8 9 8 7 4 2 5 7 5 7 9 8 10 8 6 4 3 4 4 4 5 3 3 4 3 3 3 3
21 20 19 16 14 13 10 7 9 11 9 10 14 14 8 2 3 1 2 5 7 4 2 3 4 6 8 7 11 11 7 10 7 6 15 15 8 6 6 6 8 10 11 14 13 13 12 2 4 6 6 7 9 8 9 8 7 8 9 11 11 11 10 10 8 5 7 5 3 3 6 3 2 5 7 5 4 5 5 6 6 6 6 5 5 5 4 3
21 20 18 18 16 14 10 5 9 11 9 10 12 11 11 6 5 3 1 4 8 3 4 4 5 6 8 9 11 7 2 8 2 6 12 10 5 4 4 5 5 8 9 10 9 7 4 4 4 6 6 7 8 9 9 8 8 7 2 3 6 9 8 9 7 3 5 4 2 1 5 3 1 3 5 8 7 7 6 6 7 7 6 7 6 6 6 5
23 21 19 19 19 18 10 2 8 11 6 8 11 10 12 10 7 3 1 4 8 4 6 2 2 4 6 6 10 8 1 3 6 5 6 5 4 3 5 7 6 4 4 3 5 3 4 7 5 6 7 8 8 8 8 9 8 4 2 2 1 5 7 6 5 5 5 5 1 5 5 6 6 6 4 7 7 7 7 7 8 7 7 8 7 6 7 6
25 24 21 20 23 22 11 3 9 12 5 3 9 13 13 11 7 1 1 3 4 4 4 1 2 2 4 3 6 6 1 3 5 2 3 2 4 3 7 11 8 8 8 6 6 2 4 8 9 9 9 8 7 4 5 9 8 1 4 3 1 1 4 4 4 5 4 4 4 6 5 4 7 4 4 5 4 6 8 9 10 9 9 9 8 8 8 7
26 26 24 23 25 23 14 7 8 12 9 3 9 15 15 11 6 2 1 4 2 4 2 2 3 3 5 5 5 3 3 1 1 1 4 2 2 1 5 9 8 8 10 9 8 1 2 2 4 8 9 7 4 3 2 6 5 3 6 4 4 1 1 2 4 5 3 4 7 6 7 5 6 3 5 3 3 4 5 7 9 10 10 9 9 9 8 7
28 28 26 25 26 24 20 15 13 12 10 8 12 18 15 8 4 3 5 5 1 3 3 3 4 6 10 10 6 5 3 1 3 5 6 5 4 2 1 2 4 5 6 6 6 0 3 2 2 3 4 2 5 7 4 1 4 6 6 4 3 3 2 3 4 3 4 6 6 6 9 7 5 2 4 2 1 3 3 5 7 9 10 9 9 9 8 8
31 31 29 29 30 29 20 14 18 16 11 13 18 18 11 2 1 6 7 2 2 2 4 4 5 9 14 12 7 7 7 3 7 9 7 5 7 6 4 3 3 3 4 6 6 3 4 3 2 1 1 3 7 5 3 3 3 5 5 4 4 3 3 4 4 4 5 5 2 1 4 6 5 2 2 3 5 5 3 4 8 11 10 9 9 8 9 8
34 34 33 33 33 32 21 13 21 19 14 19 20 12 5 2 4 9 6 3 1 3 5 5 7 9 13 11 6 8 9 6 8 10 8 7 7 8 9 8 7 6 6 7 6 4 5 7 5 4 1 4 6 5 4 2 3 5 5 6 6 4 4 5 4 5 5 3 2 3 3 4 6 6 3 4 6 5 4 3 7 11 11 10 10 9 8 8
37 35 36 36 35 34 25 16 20 22 21 23 16 4 3 6 9 10 7 4 0 1 4 5 7 8 10 9 5 8 8 5 10 9 7 9 8 9 11 10 10 7 4 6 8 4 4 5 7 7 3 6 9 7 5 5 6 8 8 7 7 5 5 6 6 5 4 1 2 3 2 2 5 6 5 3 7 6 6 5 3 8 11 11 11 10 8 8
37 36 38 39 38 36 31 20 17 25 28 21 10 3 4 7 6 3 7 6 1 2 4 5 8 8 8 7 4 8 6 4 10 9 6 9 7 8 11 11 14 9 2 5 7 6 6 3 7 11 5 9 13 8 4 6 8 9 7 6 6 5 5 5 4 4 2 2 3 3 2 4 4 1 1 4 5 4 5 5 3 4 9 10 10 10 9 9
35 37 38 40 38 36 33 24 21 30 28 14 6 5 6 7 3 2 5 5 3 3 4 5 8 7 7 5 3 8 5 2 11 9 6 10 8 8 10 10 14 11 6 7 4 6 9 4 5 5 1 10 14 5 2 5 7 7 4 4 5 4 4 3 0 1 2 1 3 4 3 3 2 3 4 4 3 4 4 4 5 5 8 10 9 10 10 9
33 35 34 36 37 37 36 28 27 34 25 9 6 5 6 7 3 3 4 4 4 6 8 5 5 5 6 5 4 8 2 0 10 9 6 10 9 10 10 9 14 15 11 8 3 4 6 2 5 4 1 5 6 2 2 2 3 5 5 5 2 2 3 3 1 3 2 4 4 5 5 4 2 3 5 5 4 6 6 5 7 7 9 10 9 9 10 10
33 29 25 29 34 38 39 33 33 34 17 6 7 7 6 7 6 6 5 4 5 8 8 5 5 6 7 5 6 9 4 2 8 7 5 8 7 10 12 9 12 17 15 9 4 4 4 1 4 5 3 2 3 1 2 2 1 4 5 4 3 2 2 3 3 1 3 7 4 5 8 6 5 4 4 6 5 6 7 8 8 9 10 10 9 10 11 11
29 21 16 26 37 39 38 38 36 26 9 5 11 10 6 6 7 8 6 5 6 7 6 5 6 7 7 5 5 8 7 4 7 6 5 6 5 9 14 10 9 16 18 11 3 2 4 2 3 3 2 4 1 2 4 1 1 0 2 1 1 2 4 4 4 4 5 7 5 6 9 7 7 5 6 9 9 8 9 9 9 11 11 10 10 11 12 12
21 9 6 21 38 39 41 41 31 15 6 7 12 10 5 5 7 8 8 7 6 6 8 7 6 6 7 7 4 7 9 7 7 5 5 6 4 6 12 9 8 14 18 13 5 2 3 4 3 2 2 5 5 5 7 7 4 1 3 2 1 2 3 4 4 3 4 6 6 6 6 5 6 6 11 13 12 11 10 9 10 12 12 10 10 11 12 13
11 3 2 15 35 41 43 36 18 7 7 9 9 7 5 6 6 8 9 6 3 4 6 8 9 6 6 7 3 6 8 6 6 3 2 4 3 3 8 8 7 10 13 14 9 4 3 4 3 3 3 5 5 6 8 8 8 6 5 6 5 3 1 2 4 3 3 5 6 7 6 4 1 4 9 12 12 12 11 9 9 9 11 11 10 10 11 11
4 3 1 16 36 42 35 19 7 6 7 7 8 7 7 7 7 9 8 4 1 0 1 5 9 7 5 6 5 5 6 5 6 4 3 6 6 4 3 2 4 8 7 8 9 6 4 5 4 4 5 6 3 2 2 3 5 7 8 8 8 6 4 3 5 4 2 4 4 5 8 4 2 3 2 4 4 6 8 8 8 7 9 10 9 10 10 10
3 4 2 18 40 41 23 7 5 6 7 8 6 5 6 6 7 10 9 4 1 1 0 2 6 6 6 6 5 5 6 4 7 7 6 8 9 5 1 4 2 8 6 3 4 3 0 2 5 4 4 4 2 3 1 2 2 3 5 6 7 8 7 7 7 4 3 3 1 3 7 4 2 4 4 4 3 3 3 4 6 6 6 7 7 8 9 10
2 3 4 18 38 36 14 5 7 6 7 6 4 3 5 6 9 11 10 8 6 4 4 3 5 7 6 5 4 5 7 5 7 8 5 6 5 2 2 2 1 7 6 3 2 2 1 2 6 4 2 3 3 2 0 1 2 3 4 4 5 7 6 6 4 1 3 5 3 4 8 4 2 3 3 2 1 1 1 2 4 5 4 5 6 7 7 9
2 2 2 12 27 24 9 5 9 8 8 6 5 7 5 3 10 12 11 13 9 6 7 5 5 7 5 4 4 7 9 7 7 8 4 4 4 2 2 1 1 4 4 1 2 5 4 4 7 6 4 3 2 2 3 3 3 5 5 5 6 7 4 2 1 0 4 6 4 6 10 5 2 1 2 1 1 1 1 2 3 3 3 4 5 6 8 8
4 3 0 6 12 10 4 3 6 9 10 9 10 12 8 3 7 9 11 13 9 6 6 3 4 6 3 3 3 5 9 7 5 6 4 3 2 1 2 2 1 2 2 4 3 4 5 4 7 9 9 8 6 5 5 5 5 3 4 6 8 11 9 5 3 5 7 5 4 7 10 4 2 1 2 2 1 2 3 4 3 3 3 4 5 6 8 9
3 2 1 2 4 4 3 1 3 5 9 10 8 9 11 8 4 5 9 11 10 9 6 1 2 4 4 6 6 6 9 7 2 2 6 5 2 0 1 2 2 1 2 4 4 2 1 2 5 8 7 4 2 2 2 5 7 7 7 8 9 11 10 7 5 7 6 3 5 11 11 8 7 7 7 6 5 6 6 5 4 4 4 5 6 6 8 8
3 3 4 3 2 4 5 4 5 5 8 10 6 6 13 13 6 5 8 8 9 10 6 1 4 8 8 11 10 8 10 9 3 4 8 6 2 1 1 1 1 1 2 3 2 1 2 4 7 9 7 1 4 2 2 7 10 11 10 11 11 10 10 9 8 7 5 5 10 13 10 9 14 13 7 8 8 7 7 6 5 6 6 6 6 7 8 9
2 1 1 0 1 5 7 8 9 8 9 11 8 7 13 16 13 10 8 5 5 10 7 3 8 15 14 14 11 7 8 8 6 7 8 6 4 3 2 1 1 1 2 1 1 1 3 5 6 8 9 4 4 4 2 4 5 7 9 11 12 13 13 12 11 10 9 9 12 13 9 8 14 15 5 7 8 7 6 6 6 7 7 7 8 8 9 10
1 0 1 2 1 3 5 7 11 11 11 11 8 7 12 18 18 12 7 5 5 9 11 9 12 16 14 13 11 8 10 10 9 9 8 7 6 5 3 1 1 1 1 1 0 0 3 4 4 6 9 7 3 4 3 3 4 6 9 11 13 14 13 11 11 14 13 11 13 14 13 14 16 14 6 3 5 5 5 4 6 8 9 9 9 9 9 10
1 1 0 1 1 1 2 4 10 9 8 7 7 9 10 16 19 12 7 8 8 9 12 15 15 13 12 12 11 13 15 12 9 9 9 9 7 5 4 3 3 3 1 2 1 1 2 2 1 4 6 5 5 6 4 4 5 7 10 14 16 15 12 11 13 14 12 13 16 15 14 17 15 10 6 5 3 3 5 6 7 9 9 9 8 8 9 10
1 1 1 1 1 1 1 2 6 8 7 6 7 9 10 14 16 12 6 7 8 9 13 18 16 9 7 10 12 15 14 7 5 8 11 11 8 5 4 3 5 6 4 3 2 1 3 2 2 3 5 4 5 6 5 4 0 6 14 19 18 14 12 12 12 11 11 13 13 12 12 14 11 5 4 7 5 5 8 9 9 8 8 8 8 9 10 10
2 1 1 1 0 2 2 1 2 6 7 7 8 7 7 10 11 11 6 2 1 2 5 12 13 8 6 12 16 13 7 5 4 5 7 7 4 2 2 4 6 7 6 4 2 2 4 4 3 4 5 2 4 6 6 6 1 7 11 12 13 12 13 13 11 12 14 12 9 10 12 11 8 5 5 6 7 9 10 8 8 7 7 9 10 10 9 8
Wind_Direction
184 182 179 179 179 182 182 175 173 169 168 164 160 164 169 175 179 192 183 159 122 30 8 2 352 358 359 351 353 345 349 359 355 15 35 10 349 181 169 138 132 120 93 79 267 259 235 208 126 270 253 208 320 31 42 355 333 276 260 249 245 115 92 74 101 81 78 121 127 121 52 307 285 64 36 258 230 227 252 249 221 103 78 70 67 36 18 16
196 192 185 182 186 189 188 186 182 177 176 168 167 169 172 180 184 196 179 139 13 21 359 356 351 357 357 351 353 341 349 349 239 53 48 45 98 135 138 130 118 100 86 43 294 292 287 303 56 276 271 221 80 49 222 9 313 289 305 266 56 59 68 51 44 68 47 81 108 115 49 321 315 356 11 298 265 244 267 251 180 140 111 93 61 36 30 26
206 204 196 190 190 195 194 194 190 185 185 179 178 179 180 185 184 192 166 113 355 359 351 354 351 355 354 354 350 339 348 309 225 66 50 75 100 110 114 112 98 91 77 19 322 318 320 15 298 279 281 254 73 80 233 38 305 332 303 276 77 67 81 87 62 76 42 37 334 172 66 298 291 338 329 299 295 281 275 312 152 173 107 76 45 34 29 29
208 209 205 202 198 199 199 197 195 191 194 193 189 192 190 186 190 208 206 271 340 344 348 353 350 355 355 356 346 342 339 283 203 91 76 103 109 112 108 102 96 84 64 11 337 330 274 174 253 289 280 240 98 229 236 63 340 3 294 330 77 66 98 117 111 97 78 23 299 302 243 271 255 197 274 280 286 276 293 48 15 343 15 14 29 35 30 34
208 211 209 209 205 205 205 200 197 196 199 200 200 200 200 200 205 221 256 304 339 339 348 348 348 355 354 356 347 343 325 279 130 121 161 132 127 128 119 108 100 81 71 76 62 167 221 213 232 266 266 240 132 224 126 79 344 270 235 41 76 346 334 116 111 111 120 213 263 256 248 277 89 246 253 246 267 290 59 44 26 17 19 13 24 32 36 40
213 216 216 214 210 210 209 205 203 204 204 204 205 206 212 215 216 234 259 305 323 326 339 343 350 355 354 355 342 329 302 296 127 173 183 154 156 143 137 117 97 86 94 224 212 229 231 230 239 248 280 285 248 280 76 94 320 279 158 102 96 331 317 109 119 144 156 227 237 252 278 321 275 266 244 234 259 48 63 45 52 50 50 46 41 42 44 43
221 222 220 219 216 215 213 210 208 211 214 213 209 208 217 218 220 243 257 288 305 315 329 339 349 351 356 343 325 286 267 317 139 187 183 176 185 166 161 134 113 102 150 253 246 247 245 246 258 294 286 276 267 10 67 136 229 267 259 125 121 175 258 270 147 169 197 239 251 275 291 269 263 263 223 226 175 83 76 66 73 74 81 73 64 58 49 45
227 232 229 226 223 220 220 216 210 213 221 223 215 208 219 224 225 242 251 268 285 290 313 335 349 356 3 333 309 271 259 90 129 184 190 194 194 188 182 153 144 115 235 265 284 283 259 252 276 311 274 304 344 322 84 265 225 240 287 95 138 220 236 240 223 224 231 246 254 251 258 262 258 261 251 223 115 99 101 96 105 109 99 86 69 60 54 51
232 246 247 237 229 226 227 222 210 211 225 232 223 214 224 234 234 240 251 264 272 286 317 333 339 356 352 312 293 288 274 112 133 182 187 195 197 187 173 170 220 217 246 267 281 272 252 266 321 318 308 13 288 278 120 263 241 235 321 359 248 255 246 239 242 249 244 241 236 244 264 266 252 28 258 177 116 115 124 124 132 132 110 89 74 63 56 54
241 254 265 255 241 234 232 226 217 218 237 242 235 231 232 240 243 242 255 264 270 294 319 320 341 10 347 283 262 280 98 123 151 174 176 183 173 167 174 201 228 245 253 240 245 257 272 319 43 41 315 324 227 260 166 258 332 2 318 299 274 267 262 246 246 251 244 239 234 250 273 272 117 191 244 127 125 143 140 141 142 141 110 84 76 67 51 45
232 235 249 267 262 247 236 230 227 231 247 252 250 245 242 246 247 246 262 270 283 301 316 336 359 352 322 270 263 274 129 139 159 161 161 157 141 150 202 222 213 253 272 251 239 270 317 331 90 203 301 165 181 181 203 298 348 328 313 295 270 259 254 241 240 242 230 235 224 243 271 255 157 212 209 122 142 159 149 147 141 144 105 82 66 58 45 38
218 212 228 255 259 250 247 244 237 237 250 260 258 255 252 249 250 258 269 275 293 303 318 345 272 298 294 262 260 232 154 156 169 172 167 158 151 183 233 240 219 230 272 270 234 181 308 272 202 239 2 332 231 181 184 111 307 292 287 288 282 269 256 237 221 191 203 200 160 225 268 238 198 185 117 126 152 161 164 160 149 145 111 94 74 69 57 45
212 219 243 263 265 256 251 247 242 238 246 260 268 269 259 250 254 259 267 279 296 314 339 341 199 184 284 267 220 158 173 177 182 182 182 183 220 275 259 239 216 209 242 281 168 160 202 189 240 255 35 293 274 86 133 169 245 275 256 271 294 283 256 179 134 147 193 160 147 221 285 237 175 145 115 136 160 167 181 171 160 156 127 123 97 90 75 59
208 225 247 270 278 277 267 250 244 242 246 259 271 274 265 250 250 254 263 264 267 266 222 160 173 186 258 264 125 179 202 196 192 187 203 210 175 189 184 179 187 196 202 199 154 159 168 151 243 203 82 314 16 111 225 211 225 262 265 252 262 278 216 137 139 164 195 143 166 216 278 265 145 135 134 149 168 177 190 175 162 164 141 137 119 104 86 71
208 221 238 257 269 280 279 260 246 239 242 257 269 273 265 240 244 254 248 227 194 187 145 168 184 211 262 248 158 219 211 201 198 200 216 196 169 162 139 134 122 135 145 144 152 142 140 167 208 196 111 61 160 205 249 241 229 235 264 260 228 246 201 155 152 178 210 138 174 212 271 275 138 142 146 149 173 186 199 184 163 168 157 155 142 114 96 91
212 220 232 241 252 274 280 268 250 235 232 247 268 270 242 245 253 224 220 199 184 165 129 178 190 240 280 252 150 206 205 200 199 210 211 179 177 164 134 129 116 117 117 118 137 134 145 182 222 304 138 179 216 230 254 253 242 217 230 267 256 250 256 184 140 160 179 142 186 216 267 292 137 143 150 156 178 189 209 199 176 177 169 163 153 125 116 115
216 225 230 233 247 271 278 277 255 216 206 227 261 270 220 226 200 171 164 159 160 153 159 233 160 219 261 190 188 217 170 176 185 193 194 176 171 153 142 140 130 128 119 118 143 155 171 185 168 251 214 228 230 222 246 247 252 227 206 250 267 261 265 262 158 146 161 188 224 222 244 274 246 159 159 168 178 189 212 205 184 187 179 170 153 138 134 115
218 224 228 230 245 265 274 288 262 188 196 233 244 209 147 149 160 147 148 152 129 124 199 207 172 234 239 178 187 136 107 132 159 163 178 173 165 161 160 158 149 148 143 146 176 182 195 191 192 235 219 220 219 208 226 239 270 279 247 262 274 262 251 258 258 149 166 213 245 253 252 263 264 211 169 167 178 192 206 195 182 195 183 170 165 155 128 105
217 219 224 230 241 249 266 290 261 176 195 224 119 112 110 96 146 182 193 181 171 191 227 176 188 233 294 150 130 86 103 126 138 151 165 162 158 166 171 162 164 174 177 177 185 185 195 185 194 234 224 214 212 210 229 252 284 298 291 292 288 278 260 266 279 132 166 256 254 261 265 262 268 256 188 161 177 197 196 184 184 197 183 172 171 157 140 116
215 216 221 234 239 233 250 279 231 169 193 178 128 134 137 197 217 202 194 207 221 235 287 182 198 236 94 132 125 114 120 131 139 151 157 158 161 166 169 166 171 199 215 200 178 164 193 215 211 222 229 233 225 219 237 263 293 297 287 282 273 271 270 274 283 109 109 287 267 264 268 264 265 268 227 161 171 195 194 199 200 194 179 174 173 156 149 122
214 218 222 230 236 230 248 269 209 172 197 187 192 210 228 251 239 248 177 219 225 233 260 237 221 268 209 115 141 148 133 156 176 157 161 165 171 176 174 174 184 206 214 199 151 117 193 226 226 229 238 252 251 233 245 263 273 271 271 271 266 262 268 273 274 102 101 275 276 274 272 264 259 267 239 162 176 198 194 204 203 189 170 163 171 163 149 122
217 221 223 225 233 230 247 258 199 175 196 196 219 236 300 350 359 36 15 256 231 222 241 241 243 260 195 125 159 174 204 202 180 165 170 173 186 199 180 179 208 212 180 166 156 176 216 231 234 235 237 224 354 268 255 260 261 259 257 258 262 263 273 274 261 98 107 242 283 292 284 274 267 267 227 166 187 186 168 188 186 178 174 173 173 163 159 149
218 219 220 226 234 224 239 251 195 181 209 205 222 236 281 1 76 62 300 279 265 213 216 217 221 227 206 177 175 183 212 215 208 183 171 175 192 212 195 188 219 219 175 185 208 221 228 238 234 221 191 203 230 232 230 248 250 242 244 248 256 261 271 270 231 105 183 243 287 299 289 275 267 257 188 146 167 130 119 126 128 155 173 167 156 151 167 163
218 219 218 224 231 218 233 251 195 197 222 216 232 232 228 61 118 66 274 271 268 209 197 209 219 224 209 172 168 188 213 227 229 183 166 178 180 184 212 207 220 224 203 207 216 232 242 270 155 187 181 221 235 222 213 233 245 233 231 236 255 265 261 262 272 310 269 248 251 279 281 270 254 227 172 132 141 146 146 156 156 165 157 142 142 150 161 155
221 223 219 216 221 211 216 236 203 210 218 217 241 229 205 167 138 174 289 269 256 215 158 196 203 216 192 145 159 181 218 226 224 162 166 186 178 160 205 214 225 229 219 218 223 242 245 160 112 170 177 212 228 229 216 220 251 248 228 227 248 269 270 272 285 310 292 265 187 245 281 271 187 195 178 155 168 173 171 184 182 175 169 172 176 169 161 151
223 225 221 213 214 203 198 227 209 205 207 219 241 217 196 186 142 167 251 276 262 208 135 180 181 180 166 154 158 144 229 229 189 119 163 188 193 176 209 194 211 241 231 222 231 251 229 134 155 183 183 202 218 238 222 208 245 262 241 211 243 269 273 271 274 268 278 292 129 215 286 288 279 243 182 159 179 178 171 194 188 178 181 181 180 172 166 166
219 221 220 212 206 194 182 194 181 175 191 228 225 196 186 180 161 176 214 277 266 166 133 187 193 170 156 155 163 147 189 181 102 110 161 176 184 186 232 197 180 236 227 196 231 234 153 160 184 188 200 210 215 238 218 200 234 256 44 42 241 264 264 252 248 239 267 308 234 207 251 278 279 271 187 156 179 178 178 198 189 186 189 178 176 170 166 165
219 217 215 208 205 198 185 153 168 179 207 229 194 185 176 169 167 144 123 253 267 117 119 141 68 84 111 134 175 160 118 126 134 153 101 122 192 178 222 216 211 213 187 185 224 232 143 178 189 189 204 217 213 229 183 189 227 229 83 65 74 302 272 244 236 243 263 302 265 218 201 252 270 248 165 152 202 212 201 197 191 189 184 177 176 169 162 157
222 216 212 205 204 206 205 206 194 204 221 188 163 170 161 157 161 76 122 229 217 109 100 127 116 95 118 147 191 153 103 121 176 126 116 162 233 214 227 232 243 217 188 208 235 306 75 194 209 198 207 217 179 75 91 194 212 135 117 101 93 97 231 220 237 249 250 255 261 233 187 226 287 237 174 178 227 233 201 181 184 185 179 176 173 165 159 152
221 218 212 199 196 201 208 220 222 212 207 181 160 156 154 159 167 172 207 227 229 106 97 132 151 148 147 157 186 190 178 131 95 134 155 169 184 213 280 261 255 215 183 230 252 126 85 55 319 221 213 181 113 77 39 90 125 140 148 132 140 171 181 212 227 240 255 245 249 234 196 212 281 242 192 204 110 97 119 154 171 175 175 174 169 164 159 155
221 219 209 195 193 196 196 215 218 203 186 170 155 149 154 156 165 204 213 252 343 122 137 154 144 149 167 173 179 188 190 159 138 154 160 152 173 188 181 172 198 202 205 232 235 193 157 169 175 158 136 119 114 98 62 76 129 165 169 167 176 176 179 206 201 203 247 242 200 194 191 208 239 228 126 94 97 94 102 154 172 174 175 171 166 165 161 160
223 219 208 197 198 197 193 207 206 190 169 159 151 145 157 151 207 220 211 75 29 184 146 151 159 169 186 190 184 176 178 173 167 173 174 171 182 188 192 193 172 183 225 219 203 189 198 204 173 122 147 184 159 133 111 125 187 191 180 182 192 188 188 208 201 200 231 231 120 118 160 211 239 246 238 134 123 118 97 110 166 174 172 168 166 164 160 161
225 218 209 201 199 199 198 205 197 178 160 154 152 139 150 184 216 220 195 154 176 160 96 117 165 178 186 192 191 170 171 178 174 181 187 183 194 199 205 211 195 204 246 196 185 180 191 210 180 161 179 208 197 179 164 174 186 192 187 185 197 202 210 221 214 213 225 178 117 130 152 228 242 250 248 136 109 100 91 83 128 168 170 168 165 160 158 160
227 217 209 203 201 202 201 200 190 172 159 153 155 149 162 201 221 201 190 185 90 90 99 115 147 164 190 201 178 162 172 187 173 175 182 185 206 207 204 215 211 219 256 183 192 195 208 235 181 178 167 178 196 211 198 171 176 197 200 201 222 232 242 239 225 233 235 119 137 152 183 214 198 168 70 88 91 88 96 97 95 150 164 161 158 158 161 165
229 215 208 202 201 203 198 195 186 170 160 154 164 166 189 214 201 157 194 172 122 141 124 128 145 160 200 213 180 178 195 205 176 178 191 194 209 208 202 210 206 207 210 202 199 196 222 251 146 154 132 172 184 207 203 165 171 190 201 224 238 261 268 259 338 21 47 57 194 186 224 240 179 120 113 118 129 127 123 131 136 153 158 157 162 166 169 173
223 212 207 199 198 200 195 192 181 170 165 161 171 180 209 215 185 177 190 151 153 150 129 145 166 172 199 204 194 194 209 48 176 184 206 205 219 221 211 207 196 199 203 200 187 182 217 245 119 116 57 170 182 188 181 191 171 164 184 211 206 359 298 246 163 91 107 272 249 184 220 249 200 176 149 142 153 150 158 168 164 168 166 166 173 176 177 179
210 204 203 200 199 198 194 190 179 172 172 174 187 199 205 205 190 174 168 139 144 140 138 173 186 182 196 198 201 192 175 131 176 188 198 193 219 221 210 211 198 199 207 214 227 210 209 200 144 162 154 109 2 356 142 348 5 148 182 197 125 44 312 255 248 209 203 254 255 184 211 221 206 203 148 153 172 165 174 179 172 176 179 183 187 184 183 182
200 195 203 206 202 195 190 187 178 174 182 197 206 215 197 193 190 169 155 139 134 144 170 205 189 185 199 200 193 177 168 166 172 187 195 183 206 199 192 203 200 198 207 216 242 228 216 215 154 160 143 118 108 196 169 190 274 262 259 229 137 209 219 203 222 248 237 248 258 218 215 219 222 205 159 177 192 183 177 174 176 185 188 193 192 187 186 183
194 189 223 207 199 194 187 183 175 175 195 197 211 220 191 186 186 167 162 153 142 160 189 212 201 196 210 207 179 159 175 186 166 176 201 191 202 184 181 197 200 198 203 204 215 229 218 232 193 143 109 131 152 197 194 186 184 277 279 230 217 261 242 208 206 235 250 249 265 259 232 224 229 192 170 182 193 191 177 170 187 194 191 194 191 186 187 184
183 196 288 184 189 189 182 176 173 187 199 198 215 214 181 186 179 167 170 159 140 171 193 202 196 195 209 213 200 163 179 195 173 175 222 193 210 197 187 199 191 189 199 205 218 221 193 229 209 129 138 166 179 200 201 191 181 188 208 199 191 193 214 267 237 225 251 255 261 272 265 249 201 153 169 180 190 191 177 173 191 192 189 194 192 188 187 185
152 238 277 164 178 178 171 170 183 191 197 212 221 215 201 195 173 168 173 153 90 238 212 200 196 191 186 198 209 172 169 194 188 192 216 202 216 217 191 222 174 158 167 195 213 212 196 214 195 153 180 200 191 160 194 221 196 191 199 198 196 190 181 218 229 200 212 257 255 268 276 270 92 82 134 152 171 172 161 166 171 173 184 190 190 190 185 182
144 230 131 158 172 169 161 183 200 179 207 215 208 206 188 180 178 173 167 160 174 169 339 227 201 196 190 193 199 161 157 189 193 198 215 210 212 207 86 5 123 151 151 176 207 213 274 220 195 167 177 186 105 65 64 311 279 237 226 212 201 197 196 212 228 207 181 221 257 283 281 283 81 49 43 60 45 61 97 133 137 143 162 166 173 182 179 184
177 206 125 158 169 167 165 206 184 184 218 193 153 150 152 169 194 182 168 181 187 165 187 211 190 202 214 194 176 168 171 188 195 196 211 214 209 179 54 355 152 167 178 186 182 168 77 207 198 172 114 108 84 71 104 334 287 240 236 227 212 211 212 221 238 233 191 208 196 228 252 249 104 28 24 72 67 55 75 94 122 130 135 144 158 170 177 184
151 146 123 174 176 174 182 201 185 203 211 175 168 186 170 190 202 187 179 188 188 172 189 200 185 201 216 174 174 191 182 190 209 200 197 207 191 90 46 343 145 178 197 224 179 175 171 193 194 186 179 170 165 202 214 204 204 219 218 203 209 217 204 172 136 185 236 228 204 233 251 239 126 352 320 128 140 189 168 142 153 153 148 162 169 176 183 181
135 128 60 201 193 191 209 201 189 207 204 192 200 197 189 209 206 197 192 190 190 183 184 198 187 184 174 140 177 204 191 199 218 201 195 212 190 84 44 40 62 181 241 330 305 200 185 198 195 193 199 198 197 207 207 185 174 209 215 183 199 212 201 186 203 221 230 213 180 228 249 246 133 181 223 189 185 214 182 154 160 169 164 176 184 188 189 186
166 188 166 191 225 234 241 221 183 204 202 199 206 198 194 200 197 201 199 194 195 190 180 170 155 154 159 179 193 208 205 212 233 187 198 200 189 40 53 67 71 206 297 325 306 230 181 243 220 217 227 219 190 210 167 148 163 188 195 185 198 211 204 200 216 223 227 219 216 231 240 250 245 212 180 173 200 211 195 169 164 180 188 190 195 197 194 193
202 205 169 159 214 230 234 227 201 202 198 193 192 188 197 202 191 184 206 207 191 184 186 169 171 182 186 189 199 210 202 203 208 198 199 191 150 44 67 97 111 358 327 298 281 125 153 228 229 230 247 293 71 63 126 155 179 193 192 195 202 203 199 204 215 220 220 234 245 240 225 230 250 248 206 177 199 212 198 185 181 183 188 195 198 198 197 198
226 215 181 194 215 207 219 215 202 203 199 192 193 190 196 200 196 190 196 197 176 180 188 211 207 206 196 186 197 204 189 197 212 206 196 179 157 143 119 102 127 20 351 306 314 99 182 221 221 217 238 242 97 83 106 148 180 201 202 206 207 201 197 200 214 222 216 224 248 251 236 231 255 267 252 165 193 220 212 195 184 178 184 192 193 192 196 201
233 326 327 329 274 211 226 201 189 202 206 197 203 206 199 200 202 198 168 148 178 195 196 206 213 212 204 194 198 196 187 196 210 209 194 169 164 161 142 151 177 66 51 143 272 281 197 218 206 196 231 245 172 153 188 185 207 233 234 232 227 218 203 192 212 225 224 234 251 260 269 267 262 267 273 189 197 224 231 212 181 181 191 192 190 195 202 205
233 241 186 39 35 342 310 183 173 193 210 200 205 213 207 204 204 197 166 166 185 192 199 213 214 205 198 195 201 208 204 199 199 196 177 162 169 179 177 179 148 117 125 165 177 287 223 204 156 172 215 231 183 165 175 193 219 243 251 247 242 235 220 206 217 224 223 237 249 257 269 269 264 266 271 254 214 171 211 226 213 206 202 192 192 204 212 213
98 5 55 121 197 182 271 189 170 187 201 200 207 208 210 212 202 187 182 199 195 186 199 209 206 190 178 186 205 218 211 189 168 169 166 168 172 172 170 159 140 144 161 165 145 197 212 182 121 176 210 212 168 163 147 108 65 266 258 249 241 234 227 222 223 223 218 228 242 250 252 255 265 282 255 241 233 225 234 241 242 228 197 184 202 213 215 216
125 38 61 85 280 179 176 332 195 198 201 202 205 200 205 215 195 177 185 221 176 173 210 204 189 166 172 198 211 215 184 134 129 141 156 169 155 122 135 139 148 158 160 159 141 143 181 176 154 182 205 190 152 157 131 95 76 259 252 240 225 216 220 225 228 230 226 222 228 233 237 249 273 289 257 239 235 242 250 252 251 237 192 188 210 216 214 215